Weather reports worldwide

Advertisment
Lerida, Spain (8171): temperature & dewpoint: 08.10.2019 14:00:00 - 14.10.2019 14:00:00 (CEST)Lerida, Spain (8171): wind speed: 08.10.2019 14:00:00 - 14.10.2019 14:00:00 (CEST)Lerida, Spain (8171): wind direction: 08.10.2019 14:00:00 - 14.10.2019 14:00:00 (CEST)Lerida, Spain (8171): reduced air pressure: 08.10.2019 14:00:00 - 14.10.2019 14:00:00 (CEST)Lerida, Spain (8171): visibility: 08.10.2019 14:00:00 - 14.10.2019 14:00:00 (CEST)Lerida, Spain (8171): precipitation: 08.10.2019 14:00:00 - 14.10.2019 14:00:00 (CEST)
Date & Time tt [°C] td [°C] ff [km/h] ff [kn] dd ppp [hPa] vv [km] rr [mm]
14.10.2019 14:00:00 - - - - - - - -
14.10.2019 13:00:00 22,3 16,8 8 4 NNE 1014,3 14 0,0
14.10.2019 12:00:00 22,4 16,2 13 7 ENE 1013,4 19 0,0
14.10.2019 11:00:00 21,5 16,0 9 5 ENE 1014,3 25 -
14.10.2019 10:00:00 19,8 15,2 15 8 ENE 1014,0 19 0,0
14.10.2019 09:00:00 18,0 14,7 13 7 ENE 1013,8 19 0,0
14.10.2019 08:00:00 17,4 14,7 11 6 NE 1013,7 19 -
14.10.2019 07:00:00 17,6 14,7 15 8 ENE 1013,5 20 0,0
14.10.2019 06:00:00 17,7 15,0 13 7 ENE 1014,6 18 0,0
14.10.2019 05:00:00 17,6 15,0 15 8 ENE 1014,6 18 -
14.10.2019 04:00:00 17,5 15,1 9 5 NE 1015,3 18 0,0
14.10.2019 03:00:00 17,8 15,2 8 4 NE 1016,1 18 0,0
14.10.2019 02:00:00 18,1 15,4 9 5 NE 1016,2 17 -
14.10.2019 01:00:00 18,5 15,6 13 7 ENE 1016,5 17 0,0
14.10.2019 00:00:00 19,1 15,6 13 7 ENE 1016,7 19 0,0
13.10.2019 23:00:00 19,4 15,7 9 5 ENE 1016,8 19 -
13.10.2019 22:00:00 20,3 15,7 11 6 ENE 1016,4 19 0,0
13.10.2019 21:00:00 21,7 15,5 8 4 NE 1016,0 19 0,0
13.10.2019 20:00:00 23,4 15,2 9 5 ESE 1015,2 20 -
13.10.2019 19:00:00 25,7 15,1 8 4 SSE 1014,2 19 0,0
13.10.2019 18:00:00 - - - - - - - -
13.10.2019 17:00:00 - - - - - - - -
13.10.2019 16:00:00 - - - - - - - -
13.10.2019 15:00:00 - - - - - - - -
13.10.2019 14:00:00 - - - - - - - -
13.10.2019 13:00:00 - - - - - - - -
13.10.2019 12:00:00 - - - - - - - -
13.10.2019 11:00:00 - - - - - - - -
13.10.2019 10:00:00 - - - - - - - -
13.10.2019 09:00:00 - - - - - - - -
13.10.2019 08:00:00 - - - - - - - -
13.10.2019 07:00:00 - - - - - - - -
13.10.2019 06:00:00 - - - - - - - -
13.10.2019 05:00:00 - - - - - - - -
13.10.2019 04:00:00 - - - - - - - -
13.10.2019 03:00:00 - - - - - - - -
13.10.2019 02:00:00 - - - - - - - -
13.10.2019 01:00:00 - - - - - - - -
13.10.2019 00:00:00 - - - - - - - -
12.10.2019 23:00:00 - - - - - - - -
12.10.2019 22:00:00 - - - - - - - -
12.10.2019 21:00:00 - - - - - - - -
12.10.2019 20:00:00 - - - - - - - -
12.10.2019 19:00:00 - - - - - - - -
12.10.2019 18:00:00 - - - - - - - -
12.10.2019 17:00:00 - - - - - - - -
12.10.2019 16:00:00 - - - - - - - -
12.10.2019 15:00:00 - - - - - - - -
12.10.2019 14:00:00 - - - - - - - -
12.10.2019 13:00:00 - - - - - - - -
12.10.2019 12:00:00 - - - - - - - -
12.10.2019 11:00:00 - - - - - - - -
12.10.2019 10:00:00 - - - - - - - -
12.10.2019 09:00:00 - - - - - - - -
12.10.2019 08:00:00 - - - - - - - -
12.10.2019 07:00:00 17,3 15,6 5 3 N 1018,9 14 0,0
12.10.2019 06:00:00 16,9 15,2 8 4 NE 1018,7 11 0,0
12.10.2019 05:00:00 16,9 15,4 9 5 NE 1018,8 10 -
12.10.2019 04:00:00 17,1 15,4 9 5 NE 1019,0 10 0,0
12.10.2019 03:00:00 17,4 15,6 9 5 NE 1019,7 12 0,0
12.10.2019 02:00:00 17,8 15,6 9 5 NNE 1019,7 13 -
12.10.2019 01:00:00 18,0 15,6 8 4 NNE 1019,9 16 0,0
12.10.2019 00:00:00 18,3 15,5 8 4 NE 1019,7 17 0,0
11.10.2019 23:00:00 19,0 15,9 8 4 NNE 1019,4 18 -
11.10.2019 22:00:00 20,1 15,9 5 3 NNE 1019,0 19 0,0
11.10.2019 21:00:00 21,6 16,1 4 2 ESE 1018,0 20 0,0
11.10.2019 20:00:00 22,8 16,3 5 3 SSW 1017,6 20 -
11.10.2019 19:00:00 25,1 16,5 9 5 S 1017,2 20 0,0
11.10.2019 18:00:00 27,3 16,3 4 2 ENE 1017,1 19 0,0
11.10.2019 17:00:00 27,1 16,1 8 4 ENE 1017,4 19 -
11.10.2019 16:00:00 26,6 15,6 5 3 NE 1018,0 20 0,0
11.10.2019 15:00:00 25,4 15,4 8 4 E 1018,9 20 0,0
11.10.2019 14:00:00 24,2 15,1 8 4 ENE 1020,4 20 -
11.10.2019 13:00:00 22,6 14,4 5 3 NE 1021,5 18 0,0
11.10.2019 12:00:00 18,6 10,9 8 4 NNE 1022,4 19 0,0
11.10.2019 11:00:00 15,4 9,7 8 4 ENE 1023,1 19 -
11.10.2019 10:00:00 13,8 9,0 9 5 NE 1023,0 19 0,0
11.10.2019 09:00:00 12,6 8,7 8 4 NNE 1022,7 19 0,0
11.10.2019 08:00:00 11,7 8,0 5 3 NE 1022,4 19 -
11.10.2019 07:00:00 11,8 8,3 8 4 NE 1022,1 18 0,0
11.10.2019 06:00:00 12,8 9,1 9 5 NE 1022,0 19 0,0
11.10.2019 05:00:00 12,5 9,0 8 4 NE 1022,2 19 -
11.10.2019 04:00:00 12,2 9,0 8 4 NNE 1022,3 19 0,0
11.10.2019 03:00:00 12,5 9,3 8 4 NE 1022,8 19 0,0
11.10.2019 02:00:00 13,4 10,0 9 5 NE 1022,8 19 -
11.10.2019 01:00:00 13,7 9,5 8 4 NE 1022,9 19 0,0
11.10.2019 00:00:00 14,2 9,0 5 3 NNE 1022,9 19 0,0
10.10.2019 23:00:00 15,0 9,4 8 4 NNE 1022,7 18 -
10.10.2019 22:00:00 16,0 10,3 5 3 NE 1022,1 17 0,0
10.10.2019 21:00:00 17,1 10,2 2 1 NNE 1021,7 13 0,0
10.10.2019 20:00:00 19,2 9,9 0 0 N 1021,0 19 -
10.10.2019 19:00:00 22,4 9,5 4 2 WNW 1020,2 20 0,0
10.10.2019 18:00:00 23,4 9,0 5 3 WSW 1020,3 19 0,0
10.10.2019 17:00:00 23,2 9,6 8 4 SW 1020,7 20 -
10.10.2019 16:00:00 22,4 9,2 8 4 WSW 1021,2 20 0,0
10.10.2019 15:00:00 20,7 8,7 5 3 W 1022,0 - 0,0
10.10.2019 14:00:00 19,7 8,7 5 3 WSW 1023,0 45 -
10.10.2019 13:00:00 18,9 8,5 4 2 SW 1023,7 20 0,0
10.10.2019 12:00:00 16,3 8,5 2 1 W 1024,3 20 0,0
10.10.2019 11:00:00 14,3 8,7 5 3 ENE 1024,5 40 -
10.10.2019 10:00:00 - - - - - - - -
10.10.2019 09:00:00 12,6 8,3 4 2 NE 1023,4 19 0,0
10.10.2019 08:00:00 12,4 8,3 4 2 NNE 1022,6 20 -
10.10.2019 07:00:00 12,4 8,3 2 1 NE 1022,5 20 0,0
10.10.2019 06:00:00 13,3 7,9 5 3 WNW 1022,2 20 0,0
10.10.2019 05:00:00 13,6 8,0 5 3 W 1021,7 20 -
10.10.2019 04:00:00 13,6 8,2 5 3 WSW 1021,8 20 0,0
10.10.2019 03:00:00 13,3 8,1 4 2 WSW 1022,1 20 0,0
10.10.2019 02:00:00 13,9 8,5 4 2 WSW 1021,9 20 -
10.10.2019 01:00:00 15,0 8,7 5 3 SW 1021,6 20 0,0
10.10.2019 00:00:00 15,8 9,5 5 3 SW 1020,9 20 0,0
09.10.2019 23:00:00 16,9 9,3 5 3 W 1020,1 20 -
09.10.2019 22:00:00 18,1 10,0 8 4 WSW 1019,2 4,7 0,0
09.10.2019 21:00:00 21,1 9,7 11 6 W 1018,2 4,0 0,0
09.10.2019 20:00:00 22,6 12,2 8 4 W 1016,9 19 -
09.10.2019 19:00:00 25,1 15,1 4 2 W 1016,0 19 0,0
09.10.2019 18:00:00 26,0 15,1 11 6 W 1015,8 20 0,0
09.10.2019 17:00:00 25,9 15,3 9 5 W 1015,8 20 -
09.10.2019 16:00:00 24,6 15,2 11 6 W 1016,4 19 0,0
09.10.2019 15:00:00 22,7 15,8 8 4 W 1016,9 19 0,0
09.10.2019 14:00:00 21,3 15,6 9 5 SW 1017,3 17 -
09.10.2019 13:00:00 20,9 15,2 9 5 SW 1018,2 18 0,0
09.10.2019 12:00:00 18,5 14,4 8 4 SW 1018,8 17 0,0
09.10.2019 11:00:00 17,7 13,8 5 3 SSW 1018,4 16 -
09.10.2019 10:00:00 17,0 13,7 8 4 S 1018,4 17 0,0
09.10.2019 09:00:00 15,8 12,5 2 1 NNW 1018,1 19 0,0
09.10.2019 08:00:00 15,3 12,4 5 3 ENE 1017,1 20 -
09.10.2019 07:00:00 16,0 12,7 5 3 NNE 1017,2 20 0,0
09.10.2019 06:00:00 16,2 12,7 9 5 N 1017,1 18 0,0
09.10.2019 05:00:00 15,8 12,9 2 1 N 1017,0 19 -
09.10.2019 04:00:00 15,9 13,6 8 4 NNE 1016,8 18 0,0
09.10.2019 03:00:00 16,2 13,9 8 4 NE 1017,1 16 0,0
09.10.2019 02:00:00 17,0 14,1 8 4 NE 1017,3 19 -
09.10.2019 01:00:00 17,7 14,2 8 4 NNE 1017,3 19 0,0
09.10.2019 00:00:00 18,4 14,7 8 4 NNE 1017,1 19 0,0
08.10.2019 23:00:00 19,1 14,4 8 4 NNE 1016,8 19 -
08.10.2019 22:00:00 21,1 14,5 5 3 NNE 1016,1 20 0,0
08.10.2019 21:00:00 22,3 14,7 8 4 S 1015,8 20 0,0
08.10.2019 20:00:00 24,2 13,7 5 3 S 1015,6 19 -
08.10.2019 19:00:00 27,2 12,0 4 2 SW 1015,1 20 0,0
08.10.2019 18:00:00 28,5 11,5 4 2 WSW 1015,1 20 0,0
08.10.2019 17:00:00 28,1 11,6 4 2 SE 1015,4 20 -
08.10.2019 16:00:00 27,5 11,1 5 3 E 1016,2 20 0,0
08.10.2019 15:00:00 26,5 10,6 5 3 SSW 1016,8 18 0,0
08.10.2019 14:00:00 24,8 11,4 4 2 NNE 1018,0 25 -

tt = temperature
td = dewpoint
ff = wind speed
dd = wind direction
ppp = reduced air pressure
vv = visibility
rr = precipitation

Next stations